Other Surface Observations
Issued by NWS

Home | Current Version | Previous Version | Text Only | Print | Product List | Glossary On
Versions: 1 2 3 4 5 6 7 8 9 10 11 12 13 14 15 16 17 18 19 20 21 22 23 24 25 26 27 28 29 30 31 32 33 34 35 36 37 38 39 40 41 42 43 44 45 46 47 48 49 50
000
SXUS52 KTAE 261918
OSOTAE
OSOTAE
North Florida/South Alabama/Southwest Georgia Weather Roundup
National Weather Service Tallahassee Florida
300 PM EDT SUN MAR 26 2017

Note: "fair" indicates few or no clouds below 12,000 feet with no
significant weather and/or obstructions to visibility.

!FLZ017-115-028-034-025-262000
...North Florida...

CITY           SKY/WX    TMP DP  RH WIND       PRES   REMARKS
TALLAHASSEE    PTSUNNY   81  62  52 SE14      30.10F
APALACHICOLA   PTSUNNY   73  68  84 SE9       30.12F
PERRY          SUNNY     81  60  48 SW15      30.12F
CROSS CITY     PTSUNNY   82  61  47 SW9       30.10F
JACKSONVILLE   MOSUNNY   79  56  45 SE9G16    30.11F
$$

!FLZ112-006-005-002-011-262000
...Florida Panhandle...

CITY           SKY/WX    TMP DP  RH WIND       PRES   REMARKS
MARIANNA       PTSUNNY   81  58  45 SW9       30.06F
BONIFAY        NOT AVBL
PANAMA CITY NW CLOUDY    76  63  64 S15G21    30.10F
TYNDALL AFB    DRIZZLE   77  61  56 S13       30.10F
TYND DRONE APT FAIR      78  62  58 S17G30    30.10F
DE FUNIAK SPR  MOCLDY    77  63  63 SW9G16    30.08F
EGLIN AFB      PTSUNNY   76  66  71 S12       30.09F
DESTIN         PTSUNNY   75  71  87 SE10      30.09F
HURLBURT       MOSUNNY   72  65  79 SE12      30.08F
CRESTVIEW      MOSUNNY   78  64  61 S12G22    30.09F
PENSACOLA      PTSUNNY   76  67  73 SE17      30.07F
$$

!ALZ063-066-262000
...South Alabama...

CITY           SKY/WX    TMP DP  RH WIND       PRES   REMARKS
DOTHAN         MOSUNNY   80  62  54 VRB7      30.10F
OZARK CAIRNS   LGT RAIN  70  63  78 S9        30.08S
FT RUCKER HELI MOSUNNY   78  62  56 S8        30.07F
RUCKER HELI 3  FAIR      78  62  57 SW8       30.07F
RUCKER HELI 2  PTSUNNY   77  62  58 SW6       30.07F
FLORALA APT    PTSUNNY   78  63  59 SW10      30.09F
ANDALUSIA      CLOUDY    79  62  56 MISG      30.07F
TROY           MOSUNNY   77  63  61 S8        30.09F
EUFALA         FAIR      82  60  47 VRB5      30.06F
MOBILE         PTSUNNY   80  62  54 S14G20    30.05F
$$

!GAZ120>161-262000
...Southwest and South Central Georgia...

CITY           SKY/WX    TMP DP  RH WIND       PRES   REMARKS
THOMASVILLE    FAIR      82  63  51 W6        30.11F
BAINBRIDGE     MOSUNNY   82  55  39 S8        30.08F
MOODY AFB      LGT RAIN  81  57  44 SW6       30.09F
VALDOSTA       LGT RAIN  77  58  51 S8        30.11F
MOULTRIE       MOSUNNY   81  57  44 S5G16     30.10F
BLAKELY        MOSUNNY   82  55  39 CALM      30.08F
ALBANY         PTSUNNY   83  56  39 SW9       30.10F
TIFTON         PTSUNNY   79  58  49 S8        30.10F
FITZGERALD     MOCLDY    80  60  49 S7        30.12F
CORDELE        MOCLDY    83  57  42 W9        30.10F
AMERICUS       FAIR      79  50  36 SW8       30.11F
HOMERVILLE     CLOUDY    81  59  47 SE3       30.12F
$$

!GMZ750-755-770-775-262000
...Coastal and Buoy Obs...

STATION/POSITION TIME  TEMP    WIND        PRES    VSBY  WAVE
                       AIR SEA DIR/SP/G                  HT/PER
                 (UTC) (F)     (DEG/KT/KT) (MB)    (MI)  (FT/S)
KEATON BEACH     1900   70     190/ 12/ 14 1019.9F
CEDAR KEY        1900   73     250/  5/  8 1019.9F
C TOWER          1900   69     150/  9/ 10 1020.3F
APALACHICOLA BUO 1850   70 71  150/  8/ 10 1019.6F         2/ 6
PANAMA CITY BUOY 1850   72 71              1019.3F         3/ 8
MOBILE BUOY      1900   73 74  150/ 10/ 12 1018.1
ORANGE BCH AL BU 1850   71 70  160/  8/  8 1018.4F         3/ 6
$$




USA.gov is the U.S. government's official web portal to all federal, state and local government web resources and services.